Tracking 30415 objects as of 14-May-2025
HD Live streaming from Space Station
objects crossing your sky now

IRIDIUM 33 DEB

Track IRIDIUM 33 DEB now!
10-day predictions


NORAD ID: 34350
Int'l Code: 1997-051ES
Perigee: 733.4 km
Apogee: 766.6 km
Inclination: 86.3 °
Period: 99.7 minutes
Semi major axis: 7120 km
RCS: 0.064 m2 (small)
Launch date: September 14, 1997
Source: United States (US)
Launch site: TYURATAM MISSILE AND SPACE COMPLEX (TTMTR)

Note: This is SATELLITE DEBRIS
Your satellite tracking list
Your tracking list is empty




NASA's NSSDC Master Catalog

Two Line Element Set (TLE):
1 34350U 97051ES  25133.86830414  .00001429  00000-0  40488-3 0  9998
2 34350  86.3251  95.1152 0023285 121.3461 268.4341 14.44746078852191
Source of the keplerian elements: AFSPC